C/2018 W1 ( Catalina )

Japanese version
Home page
Updated on May 20, 2019

---------------------------------------------------------------------

* Profile

Discovery Date November 16, 2018
Magnitude 19.8 mag
Discoverer Catalina Sky Survey

* Pictures

* Orbital Elements

Epoch 2019 Apr. 27.0 TT = JDT 2458600.5
T 2019 May 11.85424 TT                                  MPCW
q   1.3601778            (2000.0)            P               Q
n   0.00968529     Peri.  251.24852     +0.10160960     -0.59234320
a  21.7968819      Node   233.58949     +0.67179668     -0.55170058
e   0.9375976      Incl.   83.27808     -0.73373341     -0.58715927
P 102
From 242 observations 2018 Nov. 16-2019 Mar. 8, mean residual 0".4.

* Finding Charts

* Magnitudes Graph

        m1 = 13.5 + 5 log d + 10.0 log r

---------------------------------------------------------------------

The orbital elements are published on M.P.E.C. 2019-J142.
The charts are made with StellaNavigator Ver.10 (AstroArts).
The magnitudes graphs are made with Comet for Windows.

---------------------------------------------------------------------

Copyright(C) Seiichi Yoshida (comet@aerith.net). All rights reserved.